Flag for Brazil Weather past 2 weeks in Porto Velho, Rondônia, Brazil

Now
73 °F

Passing clouds.


Feels Like: 70 °F
Forecast: 74 / 86 °F
Wind: No wind

Location: Porto Velho Aeroporto

Current Time: Jan 31, 2015 at 6:52:22 AM

Latest Report: Jan 31, 2015 at 6:00 AM


Visibility: N/A

Pressure: 29.86 "Hg

Humidity: 94%

Dew point: 72 °F

Location of Porto VelhoLocation

Historic Weather in Porto Velho — Graph

°F

Porto Velho temperature yesterday

Maximum temperature yesterday: 91 °F (at 2:00 PM)
Minimum temperature yesterday: 73 °F (at 10:00 PM)
Average temperature yesterday: 80 °F

Past Weeks' High & Low Weather Summary

 TemperatureHumidityPressure
High91 °F (Jan 30, 2:00 PM)100% (Jan 16, 6:00 AM)30.18 "Hg (Jan 16, 6:00 AM)
Low32 °F (Jan 26, 4:00 PM)49% (Jan 30, 2:00 PM)29.68 "Hg (Jan 30, 4:00 PM)
Average77 °F86%29.86 "Hg
* Reported Jan 16 6:00 AM — Jan 31 6:00 AM, Porto Velho, Weather by CustomWeather, © 2014

Note: Actual official high and low records may vary slightly from our data, if they occured in-between our weather recording intervals... More about our weather records

Advertising

Porto Velho weather history for previous 24 hours

 ConditionsComfort  
Time TempWeatherWind HumidityBarometerVisibility
6:00 AM
Jan 31
73 °FPassing clouds.No wind94%29.86 "HgN/A
5:00 AM73 °FPassing clouds.No wind94%29.83 "HgN/A
4:00 AM73 °FPassing clouds.1 mph94%29.83 "HgN/A
3:00 AM73 °FPassing clouds.No wind94%29.86 "HgN/A
2:00 AM73 °FPassing clouds.No wind94%29.83 "HgN/A
1:00 AM73 °FPassing clouds.6 mph94%29.86 "HgN/A
12:00 AM73 °FPassing clouds.No wind94%29.86 "HgN/A
11:00 PM
Jan 30
73 °FPassing clouds.No wind94%29.86 "HgN/A
10:00 PM73 °FPassing clouds.No wind94%29.86 "HgN/A
9:00 PM75 °FThundershowers. Passing clouds.2 mph89%N/AN/A
8:00 PM75 °FThundershowers. Passing clouds.2 mph89%N/AN/A
7:00 PM75 °FThunderstorms. Passing clouds.6 mph89%29.74 "HgN/A
6:00 PM81 °FThunderstorms. Scattered clouds.17 mph70%29.74 "HgN/A
5:00 PM90 °FScattered showers. Scattered clouds.2 mph63%N/AN/A
4:00 PM90 °FScattered clouds.3 mph55%29.68 "HgN/A
3:00 PM91 °FScattered clouds.3 mph52%29.74 "HgN/A
2:00 PM91 °FScattered clouds.7 mph49%29.77 "HgN/A
12:00 PM88 °FScattered clouds.6 mph62%29.83 "HgN/A
11:00 AM86 °FScattered clouds.6 mph66%29.86 "HgN/A
10:00 AM82 °FScattered clouds.1 mph74%29.86 "HgN/A
9:00 AM81 °FScattered clouds.6 mph79%N/AN/A
8:00 AM77 °FSunny.No wind89%29.86 "Hg10 mi
7:00 AM75 °FSunny.No wind94%29.86 "Hg10 mi
6:00 AM75 °FClear.No wind89%29.83 "Hg10 mi
Weather by CustomWeather, © 2014

See weather overviewHow to use our weather pages